Weather History for Mexicali, Mexico

Change the Weather History Date:

Tuesday, September 3, 2013

  Actual Average Record
Temperature  
Mean Temperature 94 °F -  
Max Temperature 105 °F 98 °F 114 °F (2010)
Min Temperature 82 °F 71 °F 66 °F (1999)
Cooling Degree Days 28    
Growing Degree Days 44 (Base 50)    
Moisture  
Dew Point 60 °F    
Average Humidity 32    
Maximum Humidity 62    
Minimum Humidity 18    
Precipitation  
Precipitation 0.00 in - - ()
Sea Level Pressure  
Sea Level Pressure 29.78 in    
Wind  
Wind Speed 2 mph ()    
Max Wind Speed 8 mph    
Max Gust Speed -    
Visibility 10.0 miles    
Events      
Averages and records for this station are not official NWS values.
T = Trace of Precipitation, MM = Missing Value Source: Averaged Metar Reports

Daily Weather History Graph

Daily Weather History Graph

Search for Another Location

Airport:

Trip Planner

Search our weather history database for the weather conditions in past years. The results will help you decide how hot, cold, wet, or windy it might be!

Date:

Astronomy

Sep. 03, 2013 Rise Set
Actual Time 6:17 AM PDT 7:02 PM PDT
Civil Twilight 5:52 AM PDT 7:27 PM PDT
Nautical Twilight 5:22 AM PDT 7:56 PM PDT
Astronomical Twilight 4:52 AM PDT 8:27 PM PDT
Moon 4:37 AM PDT (9/3) 5:51 PM PDT (9/3)
Length of Visible Light 13h 35m
Length of Day
12h 45m
Waning Crescent, 3% of the Moon is Illuminated
Sep 3
Waning Crescent
Sep 5
New
Sep 12
First Quarter
Sep 19
Full
Sep 26
Last Quarter

Hourly Weather History & Observations

Time (PDT) Temp. Heat Index Dew Point Humidity Pressure Visibility Wind Dir Wind Speed Gust Speed Precip Events Conditions
12:44 AM 84.2 °F 86.6 °F 66.2 °F 55% 29.77 in 10.0 mi Calm Calm - N/A   Scattered Clouds
5:46 AM 82.4 °F 85.4 °F 68.0 °F 62% 29.79 in 10.0 mi Calm Calm - N/A   Unknown
6:43 AM 84.2 °F 87.3 °F 68.0 °F 58% 29.80 in 10.0 mi Calm Calm - N/A   Scattered Clouds
7:49 AM 87.8 °F 89.4 °F 64.4 °F 46% 29.85 in 10.0 mi Calm Calm - N/A   Scattered Clouds
8:18 AM 91.4 °F 92.1 °F 62.6 °F 38% 29.82 in 10.0 mi North 4.6 mph - N/A   Partly Cloudy
8:47 AM 93.2 °F 92.6 °F 59.0 °F 32% 29.83 in 10.0 mi North 6.9 mph - N/A   Partly Cloudy
9:44 AM 96.8 °F 96.2 °F 59.0 °F 28% 29.84 in 10.0 mi Calm Calm - N/A   Partly Cloudy
10:43 AM 98.6 °F 97.6 °F 57.2 °F 25% 29.86 in 10.0 mi Calm Calm - N/A   Partly Cloudy
11:47 AM 102.2 °F 102.4 °F 59.0 °F 24% 29.83 in 10.0 mi Calm Calm - N/A   Clear
12:42 PM 102.2 °F 100.9 °F 55.4 °F 21% 29.81 in 10.0 mi Calm Calm - N/A   Clear
1:43 PM 104.0 °F 102.9 °F 55.4 °F 20% 29.81 in 10.0 mi West 6.9 mph - N/A   Clear
2:41 PM 105.8 °F 104.3 °F 53.6 °F 18% 29.75 in 10.0 mi NW 4.6 mph - N/A   Clear
3:42 PM 105.8 °F 105.5 °F 57.2 °F 20% 29.72 in 10.0 mi SSW 4.6 mph - N/A   Clear
4:46 PM 105.8 °F 104.3 °F 53.6 °F 18% 29.74 in 10.0 mi SSW 8.1 mph - N/A   Clear
5:48 PM 104.0 °F 103.4 °F 57.2 °F 21% 29.71 in 10.0 mi SW 8.1 mph - N/A   Partly Cloudy
6:44 PM 102.2 °F 101.4 °F 57.2 °F 22% 29.71 in 10.0 mi West 5.8 mph - N/A   Mostly Cloudy
7:44 PM 96.8 °F 96.2 °F 59.0 °F 28% 29.74 in 10.0 mi WSW 5.8 mph - N/A   Partly Cloudy
8:42 PM 96.8 °F 96.2 °F 59.0 °F 28% 29.75 in 10.0 mi WNW 4.6 mph - N/A   Partly Cloudy
9:40 PM 95.0 °F 95.2 °F 60.8 °F 32% 29.76 in 10.0 mi WNW 5.8 mph - N/A   Partly Cloudy
10:47 PM 93.2 °F 93.3 °F 60.8 °F 34% 29.80 in 10.0 mi Calm Calm - N/A   Partly Cloudy
11:44 PM 93.2 °F 94.1 °F 62.6 °F 36% 29.78 in 10.0 mi NNW 4.6 mph - N/A   Clear